ATLAS 5 CENTAUR DEB, 44693

Orbit data source: Space-Track

ATLAS 5 CENTAUR DEB, 44693 is space debris in HEO originally from a launch on Wed, 17 Oct 2018 UTC launched from the Air Force Eastern Test Range (AFETR). Debris objects in space refer to the collection of defunct objects orbiting the Earth. Examples of debris include non-operational satellites, rocket bodies, and fragments generated from explosions, collisions, or faulty payload assembly.

Loading next visibility...
Identifier
44693, 2018-079BF
Orbit
HEO
Country
Flag of USUS
Related business
Flag of USUnited Launch Alliance/Lockheed Martin (US)
Manufacturer
ULA Decatur
Mission
Spacecraft
Bus & Motor
Unknown
Mass
Unknown
Launch date (UTC)
2018-10-17 (7 years ago)
Launch vehicle
Unknown
Launch site
Air Force Eastern Test Range (AFETR)
Object type
Payload
Rocket body
Debris
Shape & HBR
Unknown shape, 1.1 m
Radar Cross Section
RCS unknown

Expand to show TLE details & history
Last TLE update: 3 days ago

TLE from 3 days ago
0 ATLAS 5 CENTAUR DEB
1 44693U 18079BF  25296.49928153 -.00000074  00000-0  00000-0 0  9998
2 44693  13.2394  60.0727 4675426 260.7286  45.4978  1.78462870 42654
Epoch: 2025-10-23T11:58Z
TLE epoch observation values (Epoch: 2025-10-23T11:58:57.924Z)
Latitude
-0.00003°
Longitude
-151.91248°
Altitude
17,872.437 km
Speed
4.358 km/s
True Right ascension
03h 59m 56s
True Declination
0° 00' 00"
Sunlit
Object was in daylight at epoch
Visualization orbit readout
Latitude
Unknown
Longitude
Unknown
Altitude
Unknown
Speed
Unknown
Apparent Right ascension
Unknown
Apparent Declination
Unknown
Sunlit
N/A
Visualization observer readout
Local Sidereal Time
05:14:48
Azimuth
Unknown
Elevation
Unknown
Doppler factor
Unknown
Orbital elements
Apogee altitude
35,758.37 km
Perigee altitude
8,909.934 km
Semi-major axis
28,712.289 km
Eccentricity
0.46754
Inclination
13.2394°
RAAN
60.0727°
Arg. of periapsis
260.7286°
True anomaly
99.42678°
Mean anomaly
45.4978°
Eccentric anomaly
70.79523°
Mean motion
0.44611 °/min
Orbital period
806.98 mins
BSTAR
0
Loading maneuver chart data...
Computing Atmospheric mass density...

Documentation

Showing up to 5 results
|